Location: Hiekkapohja
(62.3333°N, 25.7833°E)
Time: 20:17:07
(UTC+00:00)

Cosmos 1536 Rocket - Pass Details

Date: 07 August 2020
Orbit: 605 x 633 km, 82.5° (Epoch: 21 September)

Event Time Altitude Azimuth Distance (km) Brightness Sun altitude
Rises 00:01:04 0° 342° (NNW) 2,895 7.8 -9.0°
Reaches altitude 10° 00:03:23 10° 335° (NNW) 1,982 6.8 -8.9°
Maximum altitude 00:07:28 40° 267° (W) 914 4.2 -8.7°
Enters shadow 00:11:21 11° 199° (SSW) 1,900 5.4 -8.5°
